EA3GYL La Torregassa ES current weather conditions

sailwx.info

Air temperature 17.2° C
Dewpoint 15.6° C

Last reported at 2014-Oct-31 19:40 UTC.
Time now 2014-Oct-31 22:15 UTC

Location: N 41°17' E 001°31'.
View on Google Maps.

See reports from other nearby stations

  
Tides and Currents Weather Stations Pressure Air Temp Water Temp Dewpoint Dewpoint Depression Visibility Wind Speed Wind Dir Waves Ship Positions
date/time (UTC)wind fromknots sea level pressurealtimeterstation pressurevisibilityair tempwater tempwave heightnotes
2014-Oct-31 19:40 17.2
2014-Oct-31 19:30 17.8
2014-Oct-31 19:20 17.8
2014-Oct-31 19:10 17.8
2014-Oct-31 19:00 17.8
2014-Oct-31 18:50 17.8
2014-Oct-31 18:40 17.8
2014-Oct-31 18:30 17.8
2014-Oct-31 18:20 17.8
2014-Oct-31 18:10 17.8
2014-Oct-31 18:00 18.3
2014-Oct-31 17:50 18.3
2014-Oct-31 17:40 18.3
2014-Oct-31 17:30 18.3
2014-Oct-31 17:20 18.3
2014-Oct-31 17:10 141 0 gusting 3 18.3
2014-Oct-31 17:00 132 1 gusting 3 18.3
2014-Oct-31 16:50 136 1 gusting 3 18.9
2014-Oct-31 16:40 144 1 gusting 4 18.9
2014-Oct-31 16:30 149 1 gusting 4 18.9
2014-Oct-31 16:20 161 1 gusting 4 18.9
2014-Oct-31 16:10 171 0 gusting 3 19.4
2014-Oct-31 16:00 158 1 gusting 4 19.4
2014-Oct-31 15:50 178 1 gusting 5 19.4
2014-Oct-31 15:40 187 1 gusting 5 20.0
2014-Oct-31 15:30 178 2 gusting 5 20.6
2014-Oct-31 15:20 159 2 gusting 6 20.6
2014-Oct-31 15:10 186 2 gusting 6 20.6
2014-Oct-31 15:00 175 3 gusting 6 21.1
2014-Oct-31 14:50 184 2 gusting 6 21.7
2014-Oct-31 14:40 164 2 gusting 6 21.7
2014-Oct-31 14:30 210 2 gusting 6 21.7
2014-Oct-31 14:20 174 3 gusting 7 21.7
2014-Oct-31 14:10 168 2 gusting 6 21.7
2014-Oct-31 14:00 177 2 gusting 6 21.7
2014-Oct-31 13:50 144 2 gusting 5 21.7
2014-Oct-31 13:40 152 2 gusting 5 21.7
2014-Oct-31 13:30 178 1 gusting 6 22.2
2014-Oct-31 13:20 172 2 gusting 7 21.7
2014-Oct-31 13:10 176 3 gusting 8 22.2
2014-Oct-31 13:00 148 3 gusting 6 21.7
2014-Oct-31 12:50 179 1 gusting 6 22.2
2014-Oct-31 12:40 179 1 gusting 6 22.2
2014-Oct-31 12:30 165 1 gusting 6 22.2
2014-Oct-31 12:20 163 3 gusting 7 22.2
2014-Oct-31 12:10 153 3 gusting 7 21.7
2014-Oct-31 12:00 198 1 gusting 5 21.7
2014-Oct-31 11:50 271 1 gusting 4 21.1
2014-Oct-31 11:40 203 1 gusting 4 21.1
2014-Oct-31 11:30 160 2 gusting 6 21.7
2014-Oct-31 11:20 141 2 gusting 6 21.1
2014-Oct-31 11:10 132 1 gusting 4 20.6
2014-Oct-31 11:00 149 0 gusting 4 20.6
2014-Oct-31 10:50 123 1 gusting 4 20.0
2014-Oct-31 10:40 189 0 gusting 2 20.0
2014-Oct-31 10:30 190 0 gusting 3 19.4
2014-Oct-31 10:20 194 0 gusting 2 19.4
2014-Oct-31 10:10 19.4
2014-Oct-31 10:00 19.4
2014-Oct-31 09:50 18.9
2014-Oct-31 09:40 18.3
2014-Oct-31 09:30 18.3
2014-Oct-31 09:20 18.3
2014-Oct-31 09:10 17.8
2014-Oct-31 09:00 062 0 gusting 2 17.8
2014-Oct-31 08:50 064 0 gusting 2 17.2
2014-Oct-31 08:40 064 0 gusting 3 17.2
2014-Oct-31 08:30 053 1 gusting 3 16.7
2014-Oct-31 08:20 049 0 gusting 3 16.7
2014-Oct-31 08:10 193 0 gusting 2 16.7
2014-Oct-31 08:00 16.7
2014-Oct-31 07:50 16.7
2014-Oct-31 07:40 16.1
2014-Oct-31 07:30 16.1
2014-Oct-31 07:20 15.6
2014-Oct-31 07:10 15.6
2014-Oct-31 07:00 15.6
2014-Oct-31 06:50 15.0
2014-Oct-31 06:40 15.0
2014-Oct-31 06:30 15.0
2014-Oct-31 06:20 210 0 gusting 3 15.0
2014-Oct-31 06:10 15.6
2014-Oct-31 06:00 327 0 gusting 1 15.6
2014-Oct-31 05:50 021 1 gusting 3 15.6
2014-Oct-31 05:40 039 1 gusting 3 15.6
2014-Oct-31 05:30 039 1 gusting 6 15.6
2014-Oct-31 05:20 046 0 gusting 2 15.6
2014-Oct-31 05:10 032 1 gusting 2 15.6
2014-Oct-31 05:00 15.0
2014-Oct-31 04:50 15.0
2014-Oct-31 04:40 15.0
2014-Oct-31 04:30 15.0
2014-Oct-31 04:20 15.0
2014-Oct-31 04:10 15.6
2014-Oct-31 04:00 355 0 gusting 2 15.6
2014-Oct-31 03:50 347 0 gusting 2 16.1
2014-Oct-31 03:40 16.1
2014-Oct-31 03:30 16.7
2014-Oct-31 03:20 16.7
2014-Oct-31 03:10 16.7
2014-Oct-31 03:00 039 0 gusting 1 16.1
2014-Oct-31 02:50 036 0 gusting 1 16.1
2014-Oct-31 02:40 15.6
2014-Oct-31 02:30 15.6
2014-Oct-31 02:20 15.6
2014-Oct-31 02:10 334 0 gusting 2 16.1
2014-Oct-31 02:00 16.1
2014-Oct-31 01:50 16.7
2014-Oct-31 01:40 16.7
2014-Oct-31 01:30 300 0 gusting 0 16.7
2014-Oct-31 01:20 16.7
2014-Oct-31 01:10 16.7
2014-Oct-31 01:00 16.1
2014-Oct-31 00:50 16.1
2014-Oct-31 00:40 15.6
2014-Oct-31 00:30 15.6
2014-Oct-31 00:20 15.6
2014-Oct-31 00:11 15.6
2014-Oct-31 00:00 15.6
2014-Oct-30 23:50 15.6
2014-Oct-30 23:40 15.6
2014-Oct-30 23:30 15.6
2014-Oct-30 23:20 15.6
2014-Oct-30 23:10 15.6
2014-Oct-30 23:00 15.6
2014-Oct-30 22:50 15.6
2014-Oct-30 22:40 15.6
2014-Oct-30 22:30 16.1
2014-Oct-30 22:20 16.7
2014-Oct-30 22:10 16.7
2014-Oct-30 22:00 16.7
2014-Oct-30 21:50 16.7
2014-Oct-30 21:40 16.7
2014-Oct-30 21:30 17.2
2014-Oct-30 21:20 17.2
2014-Oct-30 21:10 17.2
2014-Oct-30 21:00 17.8
2014-Oct-30 20:50 17.8
2014-Oct-30 20:40 17.8
2014-Oct-30 20:30 17.8
2014-Oct-30 20:20 17.8
2014-Oct-30 20:10 17.8
2014-Oct-30 20:00 18.3
2014-Oct-30 19:50 18.3
2014-Oct-30 19:40 18.3
2014-Oct-30 19:30 18.3
2014-Oct-30 19:20 18.3
2014-Oct-30 19:10 18.3
2014-Oct-30 19:00 18.3
2014-Oct-30 18:50 18.3
2014-Oct-30 18:40 18.9
2014-Oct-30 18:30 18.9
2014-Oct-30 18:20 18.9
2014-Oct-30 18:10 18.9
2014-Oct-30 18:00 18.9
2014-Oct-30 17:50 18.9
2014-Oct-30 17:40 18.9
2014-Oct-30 17:30 18.9
2014-Oct-30 17:20 18.9
2014-Oct-30 17:10 19.4
2014-Oct-30 17:00 174 0 gusting 2 19.4
2014-Oct-30 16:50 169 0 gusting 3 19.4
2014-Oct-30 16:40 143 0 gusting 3 19.4
2014-Oct-30 16:30 148 0 gusting 2 19.4
2014-Oct-30 16:20 158 0 gusting 2 19.4
2014-Oct-30 16:10 143 1 gusting 3 19.4
2014-Oct-30 16:00 156 1 gusting 4 19.4
2014-Oct-30 15:50 157 2 gusting 4 20.0
2014-Oct-30 15:40 158 1 gusting 4 20.0
2014-Oct-30 15:30 167 1 gusting 3 20.0
2014-Oct-30 15:20 159 1 gusting 4 20.0
2014-Oct-30 15:10 141 2 gusting 5 20.0
2014-Oct-30 15:00 156 2 gusting 5 20.6
2014-Oct-30 14:50 149 2 gusting 6 21.1
2014-Oct-30 14:40 146 3 gusting 6 21.1
2014-Oct-30 14:30 147 2 gusting 5 21.7
2014-Oct-30 14:20 135 2 gusting 6 21.7
2014-Oct-30 14:10 152 3 gusting 6 21.7
2014-Oct-30 14:00 152 2 gusting 6 21.7
2014-Oct-30 13:50 157 2 gusting 6 21.7
2014-Oct-30 13:40 154 3 gusting 6 21.7
2014-Oct-30 13:30 154 3 gusting 6 22.2
2014-Oct-30 13:20 152 3 gusting 6 22.2
2014-Oct-30 13:10 158 4 gusting 7 21.7
2014-Oct-30 13:00 146 4 gusting 7 22.2
2014-Oct-30 12:50 154 3 gusting 6 22.2
2014-Oct-30 12:40 166 3 gusting 7 22.2
2014-Oct-30 12:30 178 2 gusting 6 21.7
2014-Oct-30 12:20 21.1
2014-Oct-30 12:10 240 1 gusting 3 20.6
2014-Oct-30 12:00 234 1 gusting 4 20.6
2014-Oct-30 11:50 250 0 gusting 2 20.6
2014-Oct-30 11:40 251 1 gusting 4 20.6
2014-Oct-30 11:30 245 1 gusting 4 20.6
2014-Oct-30 11:20 20.6
2014-Oct-30 11:10 250 1 gusting 3 20.6
2014-Oct-30 11:00 226 0 gusting 2 20.0
2014-Oct-30 10:50 253 0 gusting 3 20.0
2014-Oct-30 10:40 277 0 gusting 3 20.0
2014-Oct-30 10:30 19.4
2014-Oct-30 10:20 134 0 gusting 2 19.4
2014-Oct-30 10:10 141 0 gusting 2 18.9
2014-Oct-30 10:00 128 0 gusting 1 18.9
2014-Oct-30 09:50 18.3
2014-Oct-30 09:40 101 0 gusting 2 18.3
2014-Oct-30 09:30 102 0 gusting 2 18.3
2014-Oct-30 09:20 18.9
2014-Oct-30 09:10 18.3
2014-Oct-30 09:00 124 0 gusting 1 17.2
2014-Oct-30 08:50 17.2
2014-Oct-30 08:40 17.2
2014-Oct-30 08:30 17.2
2014-Oct-30 08:20 17.2
2014-Oct-30 08:10 17.2
2014-Oct-30 08:00 17.8
2014-Oct-30 07:50 17.8
2014-Oct-30 07:40 16.7
2014-Oct-30 07:30 16.1
2014-Oct-30 07:20 15.6
2014-Oct-30 07:10 15.0
2014-Oct-30 07:00 15.0
2014-Oct-30 06:50 14.4
2014-Oct-30 06:40 14.4
2014-Oct-30 06:30 14.4
2014-Oct-30 06:20 14.4
2014-Oct-30 06:10 14.4
2014-Oct-30 06:00 14.4
2014-Oct-30 05:50 14.4
2014-Oct-30 05:40 14.4
2014-Oct-30 05:30 14.4
2014-Oct-30 05:20 14.4
2014-Oct-30 05:10 14.4
2014-Oct-30 05:00 14.4
2014-Oct-30 04:50 14.4
2014-Oct-30 04:40 15.0
2014-Oct-30 04:30 15.0
2014-Oct-30 04:20 15.0
2014-Oct-30 04:10 15.6
2014-Oct-30 04:00 15.6
2014-Oct-30 03:50 15.6
2014-Oct-30 03:40 16.1
2014-Oct-30 03:30 16.1
2014-Oct-30 03:20 16.1
2014-Oct-30 03:10 16.1
2014-Oct-30 03:00 16.1
2014-Oct-30 02:50 16.1
2014-Oct-30 02:40 16.1
2014-Oct-30 02:30 16.1
2014-Oct-30 02:20 16.1
2014-Oct-30 02:10 16.7
2014-Oct-30 02:00 16.7
2014-Oct-30 01:50 16.7
2014-Oct-30 01:40 16.1
2014-Oct-30 01:30 16.1
2014-Oct-30 01:20 16.1
2014-Oct-30 01:10 16.1
2014-Oct-30 01:00 16.1
2014-Oct-30 00:50 16.1
2014-Oct-30 00:40 15.6
2014-Oct-30 00:30 15.6
2014-Oct-30 00:20 16.1
2014-Oct-30 00:10 16.1
2014-Oct-30 00:00 16.1
2014-Oct-29 23:50 16.1
2014-Oct-29 23:40 16.1
2014-Oct-29 23:30 16.1
2014-Oct-29 23:20 16.1
2014-Oct-29 23:10 16.1
2014-Oct-29 23:00 16.1
2014-Oct-29 22:50 16.1
2014-Oct-29 22:40 16.1
2014-Oct-29 22:30 15.6
2014-Oct-29 22:20 15.6
2014-Oct-29 22:10 15.6
2014-Oct-29 22:00 15.6